�������ċp�F�����K�X���j�^�v���󋵏��
Date,Time,�ċp�F�����K�X���j�^(cps),����,����(m/s)
2024/03/15,00:00,-,���쐼,0.5
2024/03/15,00:10,-,���쐼,1.0
2024/03/15,00:20,-,�쐼,0.8
2024/03/15,00:30,-,���쐼,0.6
2024/03/15,00:40,-,���쐼,1.1
2024/03/15,00:50,-,���쐼,1.1
2024/03/15,01:00,-,���쐼,1.7
2024/03/15,01:10,-,���쐼,1.5
2024/03/15,01:20,-,�쐼,0.8
2024/03/15,01:30,-,���쐼,1.3
2024/03/15,01:40,-,��,0.9
2024/03/15,01:50,-,�쐼,1.3
2024/03/15,02:00,-,��,1.0
2024/03/15,02:10,-,��,0.8
2024/03/15,02:20,-,��,0.9
2024/03/15,02:30,-,��,0.8
2024/03/15,02:40,-,��,1.2
2024/03/15,02:50,-,��,1.0
2024/03/15,03:00,-,��,0.8
2024/03/15,03:10,-,��,1.1
2024/03/15,03:20,-,��,0.9
2024/03/15,03:30,-,��,0.9
2024/03/15,03:40,-,��,0.7
2024/03/15,03:50,-,���쐼,0.9
2024/03/15,04:00,-,��,0.8
2024/03/15,04:10,-,��,1.0
2024/03/15,04:20,-,���쐼,0.8
2024/03/15,04:30,-,�쐼,0.8
2024/03/15,04:40,-,���쐼,0.7
2024/03/15,04:50,-,�쐼,1.0
2024/03/15,05:00,-,�쐼,0.9
2024/03/15,05:10,-,�쐼,1.0
2024/03/15,05:20,-,�쐼,0.7
2024/03/15,05:30,-,���쐼,0.7
2024/03/15,05:40,-,���쐼,0.9
2024/03/15,05:50,-,�쐼,1.0
2024/03/15,06:00,-,���쐼,0.8
2024/03/15,06:10,-,���쐼,0.7
2024/03/15,06:20,-,���쐼,1.1
2024/03/15,06:30,-,�쐼,0.8
2024/03/15,06:40,-,�쐼,0.9
2024/03/15,06:50,-,��쐼,1.8
2024/03/15,07:00,-,��,1.9
2024/03/15,07:10,-,��쐼,1.4
2024/03/15,07:20,-,�쐼,0.8
2024/03/15,07:30,-,�쐼,1.8
2024/03/15,07:40,-,��쐼,3.1
2024/03/15,07:50,-,��쐼,2.7
2024/03/15,08:00,-,�쐼,2.0
2024/03/15,08:10,-,���쐼,1.6
2024/03/15,08:20,-,�쐼,2.1
2024/03/15,08:30,-,�쐼,1.4
2024/03/15,08:40,-,���쐼,2.3
2024/03/15,08:50,-,���쐼,1.7
2024/03/15,09:00,-,�쐼,1.7
2024/03/15,09:10,-,���쐼,1.4
2024/03/15,09:20,-,�쐼,2.1
2024/03/15,09:30,-,���쐼,1.7
2024/03/15,09:40,-,���쐼,1.6
2024/03/15,09:50,-,���쐼,1.5
2024/03/15,10:00,-,��,1.2
2024/03/15,10:10,-,���쐼,1.7
2024/03/15,10:20,-,��,1.2
2024/03/15,10:30,-,��,2.2
2024/03/15,10:40,-,��,2.0
2024/03/15,10:50,-,��,1.9
2024/03/15,11:00,-,���쐼,2.0
2024/03/15,11:10,-,���쐼,2.2
2024/03/15,11:20,-,��,1.9
2024/03/15,11:30,-,���쐼,2.1
2024/03/15,11:40,-,�쐼,1.6
2024/03/15,11:50,-,�쐼,1.8
2024/03/15,12:00,-,���쐼,1.8
2024/03/15,12:10,-,�쐼,2.3
2024/03/15,12:20,-,�쐼,2.3
2024/03/15,12:30,-,�쐼,2.5
2024/03/15,12:40,-,��쐼,2.4
2024/03/15,12:50,-,��쐼,3.6
2024/03/15,13:00,-,���쐼,1.8
2024/03/15,13:10,-,��,1.9
2024/03/15,13:20,-,��,1.6
2024/03/15,13:30,-,���쐼,1.8
2024/03/15,13:40,-,�쐼,1.9
2024/03/15,13:50,-,���쐼,1.9
2024/03/15,14:00,-,���쐼,1.9
2024/03/15,14:10,-,���쐼,2.0
2024/03/15,14:20,-,��,2.2
2024/03/15,14:30,-,���k��,2.5
2024/03/15,14:40,-,���k��,2.6
2024/03/15,14:50,-,��,2.2
2024/03/15,15:00,-,��,1.6
2024/03/15,15:10,1.5,��,2.4
2024/03/15,15:20,1.5,��,1.7
2024/03/15,15:30,1.5,���k��,2.7
2024/03/15,15:40,1.6,���k��,3.2
2024/03/15,15:50,1.6,���k��,2.4
2024/03/15,16:00,1.6,��,2.2
2024/03/15,16:10,1.5,��,1.8
2024/03/15,16:20,1.5,���k��,2.7
2024/03/15,16:30,1.5,���k��,2.6
2024/03/15,16:40,1.5,���k��,2.0
2024/03/15,16:50,1.5,��,2.3
2024/03/15,17:00,1.5,��,1.9
2024/03/15,17:10,1.6,��,2.5
2024/03/15,17:20,1.5,��,2.0
2024/03/15,17:30,1.5,��,1.8
2024/03/15,17:40,1.5,���쐼,2.1
2024/03/15,17:50,1.6,���쐼,1.6
2024/03/15,18:00,1.5,���쐼,1.4
2024/03/15,18:10,1.5,�쐼,2.0
2024/03/15,18:20,1.5,�쐼,1.5
2024/03/15,18:30,1.6,�쐼,1.9
2024/03/15,18:40,1.5,�쐼,2.6
2024/03/15,18:50,1.5,�쐼,1.9
2024/03/15,19:00,1.5,�쐼,2.2
2024/03/15,19:10,1.6,��,1.0
2024/03/15,19:20,1.5,��쐼,2.9
2024/03/15,19:30,1.5,�쐼,1.8
2024/03/15,19:40,1.5,�쐼,2.3
2024/03/15,19:50,1.5,���쐼,1.7
2024/03/15,20:00,1.6,�쐼,2.1
2024/03/15,20:10,1.5,�쐼,2.2
2024/03/15,20:20,1.5,�k��,1.0
2024/03/15,20:30,1.6,���쐼,0.7
2024/03/15,20:40,1.6,�k��,1.1
2024/03/15,20:50,1.5,��,1.7
2024/03/15,21:00,1.5,��,1.6
2024/03/15,21:10,1.5,���k��,1.8
2024/03/15,21:20,1.4,���쐼,1.5
2024/03/15,21:30,1.5,���쐼,1.9
2024/03/15,21:40,1.4,��,1.6
2024/03/15,21:50,1.5,���쐼,1.6
2024/03/15,22:00,1.5,��,0.9
2024/03/15,22:10,1.6,���쐼,0.8
2024/03/15,22:20,1.5,�k��,1.2
2024/03/15,22:30,1.5,-,CALM
2024/03/15,22:40,1.5,-,CALM
2024/03/15,22:50,1.6,�k�k��,0.6
2024/03/15,23:00,1.6,��,1.5
2024/03/15,23:10,1.6,�k�k��,1.5
2024/03/15,23:20,1.6,�k��,4.1
2024/03/15,23:30,1.4,���k��,4.3
2024/03/15,23:40,1.5,���k��,3.7
2024/03/15,23:50,1.5,�k��,3.3
